Home > Weather > Ettlingen > Past weeks

Flag for Germany Weather for the Past 2 Weeks in Ettlingen, Baden-Württemberg, Germany

Now
55 °F

Rain showers. Broken clouds.


Feels Like: 49 °F
Forecast: 40 / 43 °F
Wind: 32 mph from Southwest

Location: Karlsruhe - Baden Wurttemberg

Current Time: Feb 9, 2016 at 5:53:22 PM

Latest Report: Feb 9, 2016 at 4:51 PM


Visibility: 3 mi

Pressure: 29.12 "Hg

Humidity: 63%

Dew point: 43 °F

Location of EttlingenLocation

Historic Weather in Ettlingen — Graph

°F

Ettlingen Temperature Yesterday

Maximum temperature yesterday: 55 °F (at 12:20 PM)
Minimum temperature yesterday: 46 °F (at 4:50 AM)
Average temperature yesterday: 50 °F

High & Low Weather Summary for the Past Weeks

 TemperatureHumidityPressure
High59 °F (Jan 26, 2:20 PM)100% (Jan 25, 9:50 PM)30.48 "Hg (Jan 25, 9:50 PM)
Low30 °F (Feb 6, 5:50 AM)39% (Feb 6, 3:50 PM)29.12 "Hg (Feb 9, 3:50 PM)
Average47 °F77%30.10 "Hg
* Reported Jan 25 4:20 PM — Feb 9 4:20 PM, Ettlingen, Weather by CustomWeather, © 2016

Note: Actual official high and low records may vary slightly from our data, if they occured in-between our weather recording intervals... More about our weather records

Advertising

Ettlingen Weather History for the Previous 24 Hours

 ConditionsComfort  
Time TempWeatherWind HumidityBarometerVisibility
4:20 PM
Tue, Feb 9
55 °FScattered showers. Partly sunny.31 mph59%29.12 "HgN/A
3:50 PM55 °FPartly sunny.32 mph59%29.12 "HgN/A
3:20 PM55 °FScattered showers. Partly sunny.30 mph63%29.18 "HgN/A
2:50 PM54 °FScattered showers. Broken clouds.32 mph67%29.21 "HgN/A
1:50 PM52 °FLight rain. Broken clouds.30 mph77%29.27 "HgN/A
1:20 PM54 °FLight rain. Broken clouds.30 mph72%29.27 "HgN/A
12:50 PM55 °FPartly sunny.26 mph63%29.30 "HgN/A
12:20 PM54 °FLight rain. Scattered clouds.26 mph67%29.33 "HgN/A
11:20 AM52 °FLight rain. Partly sunny.28 mph72%29.39 "HgN/A
10:50 AM52 °FLight rain. Clear.24 mph72%29.42 "HgN/A
10:20 AM50 °FPartly sunny.16 mph76%29.45 "HgN/A
9:50 AM46 °FPartly sunny.10 mph87%29.47 "HgN/A
8:50 AM46 °FLight rain. Partly sunny.13 mph87%29.56 "Hg5 mi
8:20 AM46 °FSprinkles. Broken clouds.17 mph82%29.59 "Hg6 mi
7:50 AM46 °FSprinkles. Broken clouds.15 mph82%29.62 "HgN/A
6:50 AM45 °FPassing clouds.13 mph87%29.65 "HgN/A
6:20 AM46 °FSprinkles. Partly cloudy.15 mph82%29.65 "HgN/A
5:50 AM46 °FSprinkles. Partly cloudy.23 mph82%29.68 "HgN/A
5:20 AM46 °FLight rain. Partly cloudy.17 mph82%29.68 "HgN/A
4:50 AM46 °FSprinkles. Partly cloudy.16 mph76%29.68 "HgN/A
11:50 PM
Mon, Feb 8
48 °FScattered showers. Passing clouds.16 mph62%29.74 "HgN/A
11:20 PM48 °FCool.16 mph62%29.74 "HgN/A
10:50 PM50 °FScattered showers. Passing clouds.16 mph58%29.74 "HgN/A
10:20 PM50 °FScattered showers. Passing clouds.22 mph58%29.71 "HgN/A
9:50 PM50 °FScattered showers. Passing clouds.18 mph62%29.71 "HgN/A
9:20 PM48 °FLight rain. Partly cloudy.14 mph66%29.71 "HgN/A
8:50 PM48 °FRain. Passing clouds.12 mph71%29.71 "Hg5 mi
7:50 PM48 °FScattered showers. Passing clouds.18 mph66%29.65 "HgN/A
7:20 PM46 °FScattered showers. Partly cloudy.16 mph71%29.65 "HgN/A
6:50 PM46 °FScattered showers. Partly cloudy.15 mph71%29.65 "HgN/A
6:20 PM48 °FLight rain. Partly cloudy.14 mph71%29.65 "HgN/A
5:50 PM50 °FRain. Partly cloudy.21 mph71%29.62 "Hg5 mi
5:20 PM50 °FRain. Broken clouds.22 mph71%29.56 "Hg4 mi
Weather by CustomWeather, © 2016

See weather overviewHow to use our weather pages